Location: Saluda
(35.2377°N, 82.3468°W)
Time: 16:52:02
(UTC+00:00)

Transit 2A - Pass Details

Date: 03 October 2022
Orbit: 598 x 959 km, 66.7° (Epoch: 06 December)

Event Time Altitude Azimuth Distance (km) Brightness Sun altitude
Rises 05:34:46 0° 260° (W) 2,904 - -58.5°
Reaches altitude 10° 05:39:25 10° 304° (NW) 1,952 - -58.4°
Maximum altitude 05:39:57 10° 312° (NW) 1,937 - -58.3°
Drops below altitude 10° 05:40:30 10° 319° (NW) 1,947 - -58.3°
Sets 05:45:05 0° 4° (N) 2,847 - -58.1°
